#timestamp,LO_Frequency,Hit,StdDev 
1589738415.5,286047002.1,N
1589738435.3,286047001.5,N
1589738455.2,286046998.2,N
1589738475.9,286047000.0,N
1589738495.7,286047000.5,N
1589738515.6,286047002.8,N
1589738535.4,286047000.6,N
1589738555.3,286047001.1,N
1589738575.1,286047001.0,N
1589738576.0,286047001.0,N
1589738595.8,286047000.4,N
1589738615.7,286046998.4,N
1589738635.5,286046998.7,N
1589738655.3,286047001.1,N
1589738675.2,286047001.0,N
1589738695.0,286047000.4,N
1589738695.9,286047000.4,N
1589738715.8,286047000.9,N
1589738735.6,286046996.9,N
1589738755.4,286046998.8,N
1589738775.3,286047000.1,N
1589738795.1,286047000.9,N
1589738815.9,286046999.9,N
1589738835.7,286047001.9,N
1589738855.5,286047000.2,N
1589738875.4,286047002.6,N
1589738895.2,286047002.2,N
1589738915.0,286047004.4,Y
1589738916.0,286047004.4,P
1589738935.8,286047000.0,N
1589738955.6,286046999.8,N
1589738975.5,286047000.4,N
1589738995.3,286047002.7,N
1589739015.1,286047002.4,N
1589739035.9,286047000.6,N
1589739055.7,286047000.0,N
1589739075.6,286047003.3,N
1589739095.4,286047004.1,N
1589739115.2,286047000.1,N
1589739135.1,286046999.9,N
1589739136.0,286046999.9,N
1589739155.8,286046999.8,N
1589739175.7,286047000.2,N
1589739195.5,286047001.0,N
1589739215.3,286047002.0,N
1589739235.2,286047002.8,N
1589739255.0,286046999.8,N
1589739255.9,286046999.8,N
1589739275.8,286047002.7,N
1589739295.6,286047002.8,N
1589739315.4,286047000.4,N
1589739335.3,286047001.9,N
1589739355.1,286047004.2,N
1589739375.8,286047001.0,N
1589739395.7,286047001.9,N
1589739415.5,286047004.2,N
1589739435.4,286047005.3,Y
1589739455.2,286047006.0,P
1589739475.0,286047001.5,N
1589739475.9,286047001.5,N
1589739495.8,286047004.2,N
1589739515.6,286047003.9,N
1589739535.5,286047003.0,N
1589739555.3,286047002.7,N
1589739575.1,286047002.0,N
1589739595.9,286047001.6,N
1589739615.7,286047001.8,N
1589739635.5,286047003.8,N
1589739655.4,286047003.8,N
1589739675.2,286047002.7,N
1589739695.1,286047000.5,N
1589739696.0,286047000.5,N
1589739715.8,286047000.3,N
1589739735.6,286047000.2,N
1589739755.5,286047001.6,N
1589739775.3,286046999.7,N
1589739795.1,286046999.0,N
1589739815.9,286046995.9,N
1589739835.7,286046997.2,N
1589739855.6,286046997.5,N
1589739875.4,286046996.5,N
1589739895.2,286046996.9,N
1589739915.1,286046999.2,N
1589739916.0,286046999.2,N
1589739935.8,286046997.0,N
1589739955.7,286046998.7,N
1589739975.5,286046996.5,N
1589739995.3,286046998.8,N
1589740015.2,286046999.0,N
1589740035.0,286046996.9,N
1589740035.9,286046996.9,N
1589740055.7,286046999.5,N
1589740075.6,286046998.7,N
1589740095.4,286046999.2,N
1589740115.3,286047001.0,N
1589740135.1,286047002.4,N
1589740155.8,286047000.8,N
1589740175.7,286046999.9,N
1589740195.5,286046998.1,N
1589740215.4,286046996.7,N
1589740235.2,286047001.2,N
1589740255.0,286046998.6,N
1589740255.9,286046998.6,N
1589740275.8,286047002.7,N
1589740295.6,286046999.9,N
1589740315.4,286046999.6,N
1589740335.3,286046996.1,N
1589740355.1,286046995.2,N
1589740375.9,286046995.2,N
1589740395.7,286046999.5,N
1589740415.5,286047000.3,N
1589740435.4,286046999.0,N
1589740455.2,286046996.5,N
1589740475.1,286046997.4,N
1589740476.0,286046997.4,N
1589740495.8,286046994.9,N
1589740515.6,286046995.2,N
1589740535.5,286046997.9,N
1589740555.3,286046997.9,N
1589740575.2,286046996.9,N
1589740595.9,286046994.9,N
1589740615.7,286046999.5,N
1589740635.6,286046997.0,N
1589740655.4,286046997.1,N
1589740675.2,286046995.4,N
1589740695.1,286046996.6,N
1589740696.0,286046996.6,N
1589740715.8,286046997.2,N
1589740735.7,286046996.6,N
1589740755.5,286046997.1,N
1589740775.3,286047000.9,N
1589740795.2,286047000.7,N
1589740815.0,286046997.7,N
1589740815.9,286046997.7,N
1589740835.8,286046994.9,N
1589740855.6,286046995.8,N
1589740875.4,286046997.9,N
1589740895.3,286046995.0,N
1589740915.1,286046998.0,N
1589740935.9,286046995.3,N
1589740955.7,286046997.1,N
1589740975.5,286046995.2,Y
1589740995.4,286047000.4,P
1589741015.2,286046999.6,N
1589741035.1,286046998.5,N
1589741036.0,286046998.5,N
1589741055.8,286046998.8,N
1589741075.6,286046999.1,N
1589741095.5,286046998.3,N
1589741115.3,286046999.3,N
1589741135.1,286046999.3,N
1589741155.9,286046996.6,Y
1589741175.7,286046998.3,P
1589741195.6,286047000.6,N
1589741215.4,286047002.3,N
1589741235.2,286046998.4,N
1589741255.1,286047001.2,N
1589741256.0,286047001.2,N
1589741275.8,286047000.9,N
1589741295.7,286047002.2,N
1589741315.5,286047002.3,N
1589741335.3,286047002.5,N
1589741355.2,286047004.4,N
1589741375.0,286047004.3,N
1589741375.9,286047004.3,N
1589741395.7,286047004.1,N
1589741415.6,286047003.7,N
1589741435.4,286047003.9,N
1589741455.3,286047003.2,N
1589741475.1,286047001.6,N
1589741476.0,286047001.6,N
1589741495.8,286047004.1,N
1589741515.7,286047001.7,N
1589741535.5,286047002.8,N
1589741555.4,286047000.6,N
1589741575.2,286047002.5,N
1589741595.0,286047001.5,N
1589741595.9,286047001.5,N
1589741615.8,286047003.6,N
1589741635.6,286047001.6,N
1589741655.5,286047003.0,N
1589741675.3,286046999.7,N
1589741695.1,286047001.4,N
1589741715.9,286047003.6,N
1589741735.7,286047003.4,N
1589741755.6,286047005.7,Y
1589741775.4,286047005.9,P
1589741795.2,286047004.4,N
1589741815.1,286047004.4,P
1589741816.0,286047004.4,Y
1589741835.8,286046998.1,P
1589741855.7,286046998.7,N
1589741875.5,286046999.1,N
1589741895.3,286046998.9,N
1589741915.2,286046996.7,N
1589741935.0,286046997.0,N
1589741935.9,286046997.0,N
1589741955.7,286046999.6,N
1589741975.6,286046999.4,N
1589741995.4,286046998.5,N
